This is the latest recevied weather packets stored in our database for station/object KB1WCR. If no packets are shown the sender has not sent any weather packets the latest 10 day(s).
| Time | Temp. | Humidity | Pressure | Rain* | Wind** | Luminosity | Snow |
|---|---|---|---|---|---|---|---|
| 1777731107 | 7.22° C | 95% | 1012.7 hPa | 0 mm | - | 224 W/m² | - |
| 1777730806 | 6.67° C | 95% | 1013 hPa | 0 mm | - | 229 W/m² | - |
| 1777730502 | 6.67° C | 96% | 1013 hPa | 0 mm | - | 237 W/m² | - |
| 1777730198 | 6.67° C | 96% | 1012.9 hPa | 0 mm | - | 269 W/m² | - |
| 1777729895 | 6.67° C | 95% | 1012.9 hPa | 0 mm | - | 326 W/m² | - |
| 1777729288 | 6.67° C | 98% | 1013 hPa | 1.27 mm | - | 394 W/m² | - |
| 1777728985 | 6.11° C | 97% | 1013.3 hPa | 1.27 mm | - | 225 W/m² | - |
| 1777728681 | 6.11° C | 97% | 1013.4 hPa | 1.78 mm | - | 119 W/m² | - |
| 1777728378 | 6.11° C | 97% | 1013.5 hPa | 3.05 mm | - | 87 W/m² | - |
| 1777728076 | 6.11° C | 97% | 1013.4 hPa | 1.27 mm | - | 108 W/m² | - |
| 1777727772 | 6.11° C | 96% | 1013.4 hPa | 1.27 mm | - | 114 W/m² | - |
| 1777727469 | 5.56° C | 96% | 1013.4 hPa | 1.78 mm | - | 66 W/m² | - |
| 1777727167 | 6.11° C | 96% | 1013.3 hPa | 3.05 mm | - | 55 W/m² | - |
| 1777726865 | 6.11° C | 95% | 1013.3 hPa | 1.27 mm | - | 55 W/m² | - |
| 1777726560 | 6.11° C | 94% | 1013.4 hPa | 0 mm | - | 54 W/m² | - |
| 1777726258 | 6.11° C | 94% | 1013.4 hPa | 0 mm | - | 66 W/m² | - |
| 1777725954 | 6.11° C | 94% | 1013.2 hPa | 0 mm | - | 63 W/m² | - |
| 1777725652 | 6.11° C | 94% | 1013 hPa | 0 mm | - | 63 W/m² | - |
| 1777725350 | 6.11° C | 94% | 1013 hPa | 0 mm | - | 58 W/m² | - |
| 1777725046 | 6.11° C | 94% | 1012.9 hPa | 0 mm | - | 72 W/m² | - |
| 1777724743 | 5.56° C | 95% | 1013.1 hPa | 0 mm | - | 81 W/m² | - |
| 1777724440 | 5.56° C | 95% | 1013 hPa | 1.78 mm | - | 41 W/m² | - |
| 1777724138 | 5.56° C | 95% | 1013.1 hPa | 1.78 mm | - | 31 W/m² | - |
| 1777723835 | 5.56° C | 96% | 1013.2 hPa | 3.05 mm | - | 29 W/m² | - |
| 1777723531 | 5.56° C | 98% | 1013.3 hPa | 1.27 mm | - | 35 W/m² | - |
* Rain latest hour (hover to see other rain measurements)
** Current wind speed in m/s (hover to see current wind gust speed)